Content
SEND FEEDBACK

Daily
Averages
Monthly
Summary
Japan

TOKYO, JAPAN


Home > Asia > Japan
Elevation: 7 meters     Latitude: 35 33N     Longitude: 139 47E

WEATHER
 
SELECT A DAY
Number of Records: 330,374;   Date Range: 7/1/96 - 8/10/14
 
SHARE

PRINT THIS DATA

[ ← Previous Day ]
WEATHER ALMANAC - 13 FEBRUARY, 2013
[ Next Day → ]
[ °F ]   °C
Weather ElementAverageHighLow
Temperature7 °C12 °C (2:00 pm)1 °C (4:00 am)
Dewpoint-2.4 °C2 °C (7:00 am)-11 °C (3:04 pm)
Humidity56.9 %93 % (4:00 am)19 % (3:04 pm)
Barometer1012.2 hPa1021 hPa (11:00 pm)1007.1 hPa (6:30 am)
Wind Speed27.5 km/h51.8 km/h (2:00 pm)
Wind Gust81.4 km/h (2:00 pm)
Weather ElementAverage
Visibility8.5 km
Wind DirectionWNW (277.8 °)

Weather ElementTotal
Precipitation---
Heating Degree Days11.8 (Base 18.3)
Averaged from 63 records on 13 February, 2013
WEATHER CONDITIONS BREAKOUT
WIND DIRECTION BREAKOUT
WEATHER BY HOUR - 13 FEBRUARY, 2013
[ °F ]   °C
Local TimeTemperatureDewpointHumidityBarometerVisibilityWind DirectionWind SpeedGust SpeedPrecipitationEventsConditions
12:30 AM5 °C0 °C70 %1015.2 hPa10 kmNNE (30°)11.1 km/hRainLight Rain
1:00 AM4 °C1 °C81 %1013.2 hPa10 kmNNE (30°)11.1 km/hRainLight Rain
1:30 AM4 °C1 °C81 %1012.2 hPa6.9 kmNorth (10°)14.8 km/hRainLight Rain
2:00 AM4 °C1 °C81 %1011.2 hPa6 kmNorth (10°)14.8 km/hRainLight Rain
2:30 AM4 °C1 °C81 %1011.2 hPa6 kmNorth (10°)20.4 km/hRainLight Rain
2:47 AM3 °C1 °C87 %1010.2 hPa5 kmNNW (340°)22.2 km/hRainLight Rain
3:00 AM3 °C1 °C87 %1010.2 hPa4.5 kmNNW (330°)22.2 km/hRainRain
3:21 AM2 °C0 °C87 %1010.2 hPa4 kmNNW (330°)31.5 km/hRainRain
3:30 AM2 °C0 °C87 %1009.1 hPa4 kmNNW (330°)33.3 km/hRainRain
3:42 AM2 °C0 °C87 %1009.1 hPa4 kmNNW (340°)33.3 km/h51.8 km/hRainRain
4:00 AM1 °C0 °C93 %1009.1 hPa3.5 kmNNW (340°)29.6 km/hRainRain
4:25 AM2 °C0 °C87 %1009.1 hPa4 kmNNW (330°)22.2 km/hRain-SnowRain
4:30 AM2 °C0 °C87 %1009.1 hPa4 kmNNW (340°)20.4 km/hRain-SnowRain
5:00 AM2 °C1 °C93 %1009.1 hPa5 kmNW (320°)14.8 km/hRain-SnowLight Rain
5:30 AM3 °C1 °C87 %1008.1 hPa5 kmNNE (20°)9.3 km/hRainLight Rain
6:00 AM3 °C1 °C87 %1008.1 hPa6 kmWNW (300°)5.6 km/hRainLight Rain
6:30 AM3 °C1 °C87 %1007.1 hPa5 kmWNW (290°)9.3 km/hRainLight Rain
6:37 AM3 °C1 °C87 %1007.1 hPa5 kmNNW (330°)13 km/hRainLight Rain
6:44 AM3 °C1 °C87 %1008.1 hPa6 kmNNW (330°)14.8 km/hRainLight Rain
7:00 AM3 °C2 °C93 %1007.1 hPa6.9 kmNorth (360°)24.1 km/hMostly Cloudy
7:30 AM4 °C2 °C87 %1007.1 hPa6.9 kmNorth (350°)16.7 km/hPartly Cloudy
8:00 AM4 °C2 °C87 %1007.1 hPa10 kmNorth (10°)11.1 km/hPartly Cloudy
8:30 AM6 °C2 °C76 %1008.1 hPa10 kmNorth (350°)11.1 km/hPartly Cloudy
9:00 AM5 °C2 °C81 %1008.1 hPa10 kmNorth (350°)24.1 km/hPartly Cloudy
9:30 AM6 °C1 °C70 %1008.1 hPa10 kmNorth (350°)25.9 km/hPartly Cloudy
10:00 AM7 °C1 °C66 %1008.1 hPa10 kmNNW (340°)29.6 km/hPartly Cloudy
10:30 AM8 °C1 °C62 %1008.1 hPa10 kmNorth (360°)29.6 km/hPartly Cloudy
11:00 AM9 °C0 °C54 %1008.1 hPa10 kmNorth (360°)13 km/hPartly Cloudy
11:10 AM10 °C-1 °C47 %1008.1 hPa10 kmNNW (340°)33.3 km/hPartly Cloudy
11:19 AM10 °C-3 °C40 %1009.1 hPa10 kmNNW (330°)35.2 km/h53.8 km/hPartly Cloudy
11:30 AM11 °C-4 °C35 %1009.1 hPa10 kmNNW (330°)33.3 km/h55.5 km/hPartly Cloudy
12:00 PM11 °C-3 °C38 %1009.1 hPa10 kmNNW (330°)40.7 km/h61.2 km/hPartly Cloudy
12:30 PM10 °C-4 °C37 %1009.1 hPa10 kmNNW (340°)42.6 km/hPartly Cloudy
12:36 PM10 °C-4 °C37 %1009.1 hPa10 kmNNW (340°)42.6 km/h61.2 km/hPartly Cloudy
1:00 PM11 °C-5 °C33 %1009.1 hPa10 kmNNW (330°)46.3 km/h68.6 km/hPartly Cloudy
1:30 PM11 °C-5 °C33 %1010.2 hPa10 kmNNW (330°)38.9 km/h57.5 km/hPartly Cloudy
2:00 PM12 °C-9 °C22 %1011.2 hPa10 kmNNW (330°)51.8 km/h81.4 km/hPartly Cloudy
2:30 PM12 °C-9 °C22 %1012.2 hPa10 kmNNW (340°)44.4 km/hPartly Cloudy
2:36 PM11 °C-8 °C26 %1012.2 hPa10 kmNNW (340°)42.6 km/h61.2 km/hPartly Cloudy
3:00 PM12 °C-10 °C21 %1012.2 hPa10 kmNW (320°)38.9 km/hPartly Cloudy
3:04 PM12 °C-11 °C19 %1012.2 hPa10 kmNNW (330°)37 km/h55.5 km/hPartly Cloudy
3:30 PM11 °C-10 °C22 %1013.2 hPa10 kmNNW (330°)44.4 km/hPartly Cloudy
3:35 PM11 °C-10 °C22 %1013.2 hPa10 kmNNW (330°)42.6 km/h61.2 km/hPartly Cloudy
4:00 PM11 °C-5 °C33 %1013.2 hPa10 kmNorth (350°)37 km/hPartly Cloudy
4:30 PM10 °C-4 °C37 %1014.2 hPa10 kmNorth (350°)29.6 km/hPartly Cloudy
5:00 PM10 °C-5 °C35 %1015.2 hPa10 kmNNW (340°)31.5 km/hPartly Cloudy
5:30 PM10 °C-5 °C35 %1016.3 hPa10 kmNorth (350°)27.8 km/hPartly Cloudy
6:00 PM9 °C-4 °C40 %1016.3 hPa10 kmNorth (350°)35.2 km/hPartly Cloudy
6:28 PM9 °C-4 °C40 %1017.3 hPa10 kmNNW (340°)29.6 km/h48.1 km/hPartly Cloudy
6:30 PM9 °C-5 °C37 %1017.3 hPa10 kmNNW (340°)31.5 km/hPartly Cloudy
6:44 PM9 °C-5 °C37 %1017.9 hPa10 kmNNW (340°)29.6 km/h48.1 km/hPartly Cloudy
7:00 PM8 °C-5 °C40 %1017.9 hPa10 kmNNW (340°)31.5 km/hPartly Cloudy
7:18 PM8 °C-5 °C40 %1017.9 hPa10 kmNNW (330°)33.3 km/h51.8 km/hPartly Cloudy
7:30 PM8 °C-5 °C40 %1017.9 hPa10 kmNNW (340°)38.9 km/hPartly Cloudy
7:35 PM8 °C-4 °C43 %1017.9 hPa10 kmNNW (340°)35.2 km/h53.8 km/hPartly Cloudy
8:00 PM8 °C-5 °C40 %1019 hPa10 kmNorth (350°)37 km/hPartly Cloudy
8:30 PM8 °C-2 °C50 %1019 hPa10 kmNorth (350°)31.5 km/hPartly Cloudy
9:00 PM8 °C-2 °C50 %1019 hPa10 kmNorth (10°)29.6 km/hPartly Cloudy
9:30 PM8 °C-4 °C43 %1020 hPa10 kmNorth (10°)22.2 km/hPartly Cloudy
10:00 PM7 °C-3 °C49 %1020 hPa10 kmNorth (360°)24.1 km/hPartly Cloudy
10:30 PM7 °C-3 °C49 %1020 hPa10 kmNNE (20°)20.4 km/hPartly Cloudy
11:00 PM7 °C-3 °C49 %1021 hPa10 kmENE (60°)13 km/hPartly Cloudy
11:30 PM7 °C-4 °C46 %1021 hPa10 kmNE (50°)14.8 km/hPartly Cloudy
Hourly data recorded from RJTT, located 0 kilometers away from Tokyo, Japan







STORIES FROM OUR PARTNERS